Home   Weather   Wakefield   Past weeks

Flag for United Kingdom Past Weather in Wakefield, England, United Kingdom — Yesterday and Last 2 Weeks

Now
48 °F

Fog.


Feels Like: 46 °F
Forecast: 42 / 59 °F
Wind: 6 mph from Northeast

Location: Leeds And Bradford

Current Time: Oct 1, 2016 at 1:10:58 PM

Latest Report: Oct 1, 2016 at 12:20 PM


Visibility: 5 mi

Pressure: 29.71 "Hg

Humidity: 100%

Dew Point: 48 °F

Location of WakefieldLocation

Past Weather in Wakefield — Graph

°F

Wakefield Temperature Yesterday

Maximum temperature yesterday: 55 °F (at 12:20 PM)
Minimum temperature yesterday: 45 °F (at 7:20 AM)
Average temperature yesterday: 50 °F

High & Low Weather Summary for the Past Weeks

 TemperatureHumidityPressure
High70 °F (Sep 28, 3:20 PM)100% (Sep 18, 1:20 AM)30.21 "Hg (Sep 18, 1:20 AM)
Low43 °F (Oct 1, 6:50 AM)51% (Sep 22, 4:20 PM)29.68 "Hg (Sep 25, 2:20 AM)
Average55 °F85%30.00 "Hg
* Reported Sep 16 11:20 AM — Oct 1 11:50 AM, Wakefield, Weather by CustomWeather, © 2016

Note: Actual official high and low records may vary slightly from our data, if they occured in-between our weather recording intervals... More about our weather records

Advertising

Wakefield Weather History for the Previous 24 Hours

Scroll right to see more
 ConditionsComfort  
Time TempWeatherWind HumidityBarometerVisibility
11:50 AM
Sat, Oct 1
46 °FSleet. Cloudy.3 mph100%29.71 "HgN/A
11:20 AM46 °FCool.5 mph100%29.71 "Hg4 mi
10:50 AM46 °FRain. Cloudy.5 mph100%29.71 "Hg2 mi
10:20 AM46 °FCool.2 mph100%29.71 "HgN/A
9:50 AM45 °FFog.3 mphN/A29.71 "Hg1 mi
9:20 AM43 °FFog.2 mphN/A29.71 "Hg1 mi
8:50 AM43 °FFog.3 mph100%29.71 "Hg0 mi
8:20 AM45 °FRain. Fog.3 mph100%29.68 "HgN/A
7:50 AM43 °FQuite cool.5 mph100%29.68 "Hg5 mi
7:20 AM43 °FQuite cool.5 mph100%29.68 "Hg2 mi
6:50 AM43 °FPassing clouds.5 mph100%29.68 "HgN/A
6:20 AM45 °FPassing clouds.1 mph100%29.68 "HgN/A
5:50 AM45 °FClear.2 mph100%29.68 "Hg10 mi
5:20 AM45 °FClear.No wind100%29.68 "Hg10 mi
4:50 AM45 °FClear.No wind100%29.68 "Hg10 mi
4:20 AM45 °FClear.2 mph100%29.71 "Hg10 mi
3:50 AM45 °FClear.2 mph100%29.71 "Hg10 mi
3:20 AM45 °FClear.1 mph100%29.71 "Hg10 mi
2:50 AM45 °FClear.2 mph100%29.71 "Hg10 mi
2:20 AM45 °FClear.No wind100%29.74 "Hg10 mi
1:50 AM45 °FClear.1 mph100%29.74 "Hg10 mi
1:20 AM45 °FClear.2 mph100%29.74 "Hg10 mi
12:50 AM45 °FClear.2 mph100%29.74 "Hg10 mi
12:20 AM46 °FClear.2 mph93%29.74 "Hg10 mi
11:50 PM
Fri, Sep 30
46 °FClear.5 mph100%29.77 "Hg10 mi
11:20 PM46 °FClear.5 mph100%29.77 "Hg10 mi
10:50 PM46 °FClear.5 mph93%29.77 "Hg10 mi
10:20 PM46 °FClear.3 mph93%29.77 "Hg10 mi
9:50 PM48 °FClear.3 mph94%29.77 "Hg10 mi
9:20 PM46 °FPassing clouds.5 mph93%29.77 "HgN/A
8:50 PM46 °FClear.3 mph93%29.77 "Hg10 mi
8:20 PM48 °FPassing clouds.5 mph87%29.77 "HgN/A
7:50 PM48 °FPassing clouds.6 mph94%29.77 "HgN/A
7:20 PM50 °FPassing clouds.5 mph88%29.77 "HgN/A
6:50 PM50 °FPassing clouds.6 mph88%29.77 "HgN/A
6:20 PM52 °FScattered clouds.7 mph82%29.77 "HgN/A
5:50 PM52 °FScattered clouds.7 mph82%29.77 "HgN/A
5:20 PM54 °FScattered showers. Scattered clouds.7 mph82%29.77 "HgN/A
4:50 PM54 °FScattered clouds.5 mph82%29.77 "HgN/A
4:20 PM54 °FScattered showers. Scattered clouds.7 mph82%29.77 "HgN/A
3:50 PM52 °FSprinkles. Scattered clouds.12 mph82%29.77 "HgN/A
3:20 PM52 °FSprinkles. Scattered clouds.7 mph88%29.77 "HgN/A
2:50 PM50 °FScattered showers. Scattered clouds.9 mph88%29.77 "HgN/A
2:20 PM54 °FSprinkles. Scattered clouds.8 mph77%29.77 "HgN/A
1:50 PM52 °FScattered clouds.5 mph88%29.77 "HgN/A
1:20 PM52 °FSprinkles. Scattered clouds.13 mph82%29.77 "HgN/A
Weather by CustomWeather, © 2016

See weather overviewHow to use our weather pages